Regional Weather Roundup
Issued by NWS Spokane, WA

Home | Current Version | Previous Version | Text Only | Print | Product List | Glossary On
Versions: 1 2 3 4 5 6 7 8 9 10 11 12 13 14 15 16 17 18 19 20 21 22 23 24 25 26 27 28 29 30 31 32 33 34 35 36 37 38 39 40 41 42 43 44 45 46 47 48 49 50
000
NZUS01 KOTX 311810
RWROTX
EASTERN WASHINGTON/NORTHERN IDAHO ROUNDUP
NATIONAL WEATHER SERVICE, SPOKANE WA
1100 AM PDT THU JUL 31 2014

Note: "fair" indicated few or no clouds below 12,000 feet with no
significant weather and/or obstructions to visibility.

...NORTHEAST WASHINGTON AND NORTHERN IDAHO PANHANDLE...

CITY           SKY/WX    TMP DP  RH WIND       PRES   REMARKS
SPOKANE INTL   MOSUNNY   88  44  21 VRB3      30.07S
SPOKANE DOWNTO SUNNY     89  48  24 CALM      30.06S
COEUR D ALENE  SUNNY     86  52  30 CALM      30.05F
DEER PARK      SUNNY     86  44  23 S6        30.08R
SANDPOINT      SUNNY     81  55  41 CALM      30.07F

...SOUTHEAST WASHINGTON AND SOUTHERN IDAHO PANHANDLE...

CITY           SKY/WX    TMP DP  RH WIND       PRES   REMARKS
WALLA WALLA    MOSUNNY   91  49  23 S6        30.02F
PULLMAN/MOSCOW SUNNY     90  45  21 SW7       30.11S
LEWISTON       SUNNY     90  48  23 CALM      30.03F
LOWELL           N/A     82  51  34 CALM      30.06F

...COLUMBIA BASIN...

CITY           SKY/WX    TMP DP  RH WIND       PRES   REMARKS
EPHRATA        SUNNY     93  32  11 VRB5      30.00S
MOSES LAKE     MOSUNNY   90  43  19 CALM      30.01S
TRI CITIES     SUNNY     88  51  28 VRB3      29.99S
HERMISTON      MOSUNNY   90  54  29 SW9       30.01R
PENDLETON      PTSUNNY   87  45  23 SW8       30.05R

...EAST SLOPES CASCADES...

CITY           SKY/WX    TMP DP  RH WIND       PRES   REMARKS
THE DALLES     SUNNY     82  57  42 N10G20    29.97F
YAKIMA         MOSUNNY   88  42  20 SW6       30.02S
ELLENSBURG     SUNNY     84  51  31 E6        30.05S
WENATCHEE      SUNNY     84  43  23 W7        30.02F
OMAK           SUNNY     91  37  15 N16       30.02F

...SOUTHERN BRITISH COLUMBIA...

CITY           SKY/WX    TMP DP  RH WIND       PRES   REMARKS
CASTLEGAR      MOSUNNY   81  52  36 CALM      30.05F
CRANBROOK      PTSUNNY   81  46  30 VRB6      30.13F

...WESTERN MONTANA...

CITY           SKY/WX    TMP DP  RH WIND       PRES   REMARKS
MISSOULA       SUNNY     82  45  27 VRB3      30.17F

...NEIGHBORING CITIES...

CITY           SKY/WX    TMP DP  RH WIND       PRES   REMARKS
SEATTLE        MOSUNNY   75  51  43 N12       30.12S
CALGARY        MOSUNNY   75  61  60 NW12G20   30.16S



USA.gov is the U.S. government's official web portal to all federal, state and local government web resources and services.